TimeCDT,TemperatureF,Dew PointF,Humidity,Sea Level PressureIn,VisibilityMPH,Wind Direction,Wind SpeedMPH,Gust SpeedMPH,PrecipitationIn,Events,Conditions,WindDirDegrees,DateUTC
12:12 AM,57.2,55.4,94,29.91,10.0,Calm,Calm,-,N/A,,Clear,0,2013-09-11 05:12:00
12:32 AM,57.2,55.4,94,29.91,10.0,SSW,3.5,-,N/A,,Clear,210,2013-09-11 05:32:00
12:53 AM,57.2,55.4,94,29.91,10.0,Calm,Calm,-,N/A,,Clear,0,2013-09-11 05:53:00
1:13 AM,57.2,55.4,94,29.91,10.0,Calm,Calm,-,N/A,,Clear,0,2013-09-11 06:13:00
1:33 AM,57.2,55.4,94,29.92,10.0,Calm,Calm,-,N/A,,Clear,0,2013-09-11 06:33:00
1:53 AM,55.4,55.4,100,29.92,10.0,Calm,Calm,-,N/A,,Clear,0,2013-09-11 06:53:00
2:12 AM,55.4,55.4,100,29.92,10.0,Calm,Calm,-,N/A,,Clear,0,2013-09-11 07:12:00
2:33 AM,55.4,55.4,100,29.93,10.0,Calm,Calm,-,N/A,,Clear,0,2013-09-11 07:33:00
2:53 AM,55.4,55.4,100,29.92,10.0,Calm,Calm,-,N/A,,Clear,0,2013-09-11 07:53:00
3:12 AM,55.4,55.4,100,29.92,10.0,Calm,Calm,-,N/A,,Clear,0,2013-09-11 08:12:00
3:33 AM,55.4,53.6,94,29.92,10.0,SSW,3.5,-,N/A,,Clear,210,2013-09-11 08:33:00
3:53 AM,55.4,53.6,94,29.91,10.0,Calm,Calm,-,N/A,,Clear,0,2013-09-11 08:53:00
4:12 AM,55.4,53.6,94,29.91,10.0,Calm,Calm,-,N/A,,Clear,0,2013-09-11 09:12:00
4:33 AM,53.6,51.8,94,29.91,7.0,SE,3.5,-,0.01,,Scattered Clouds,130,2013-09-11 09:33:00
4:52 AM,53.6,53.6,100,29.91,7.0,Calm,Calm,-,0.01,,Mostly Cloudy,0,2013-09-11 09:52:00
5:13 AM,55.4,53.6,94,29.90,10.0,Calm,Calm,-,N/A,,Mostly Cloudy,0,2013-09-11 10:13:00
5:33 AM,55.4,53.6,94,29.90,10.0,Calm,Calm,-,N/A,,Overcast,0,2013-09-11 10:33:00
5:52 AM,53.6,53.6,100,29.91,7.0,Calm,Calm,-,N/A,,Mostly Cloudy,0,2013-09-11 10:52:00
6:13 AM,55.4,53.6,94,29.90,10.0,Calm,Calm,-,N/A,,Scattered Clouds,0,2013-09-11 11:13:00
6:33 AM,53.6,53.6,100,29.90,7.0,South,3.5,-,N/A,,Scattered Clouds,190,2013-09-11 11:33:00
6:52 AM,55.4,53.6,94,29.90,7.0,Calm,Calm,-,N/A,,Scattered Clouds,0,2013-09-11 11:52:00
7:13 AM,55.4,55.4,100,29.91,7.0,Calm,Calm,-,N/A,,Scattered Clouds,0,2013-09-11 12:13:00
7:33 AM,57.2,55.4,94,29.90,7.0,SW,4.6,-,N/A,,Scattered Clouds,230,2013-09-11 12:33:00
7:52 AM,59.0,57.2,94,29.90,7.0,WSW,5.8,-,N/A,,Scattered Clouds,250,2013-09-11 12:52:00
8:13 AM,59.0,57.2,94,29.91,7.0,WSW,5.8,-,N/A,,Overcast,250,2013-09-11 13:13:00
8:33 AM,59.0,57.2,94,29.90,7.0,SW,5.8,-,N/A,,Overcast,230,2013-09-11 13:33:00
8:52 AM,59.0,57.2,94,29.90,7.0,WSW,6.9,-,N/A,,Overcast,250,2013-09-11 13:52:00
9:13 AM,60.8,57.2,88,29.90,7.0,WSW,5.8,-,N/A,,Overcast,250,2013-09-11 14:13:00
9:33 AM,60.8,57.2,88,29.91,7.0,West,6.9,-,N/A,,Overcast,260,2013-09-11 14:33:00
9:52 AM,60.8,57.2,88,29.92,7.0,West,9.2,-,N/A,,Overcast,270,2013-09-11 14:52:00
10:13 AM,60.8,59.0,94,29.93,10.0,WNW,9.2,-,N/A,,Overcast,290,2013-09-11 15:13:00
10:33 AM,60.8,57.2,88,29.94,10.0,WNW,12.7,18.4,N/A,,Overcast,290,2013-09-11 15:33:00
10:52 AM,62.6,57.2,82,29.95,10.0,WNW,10.4,19.6,N/A,,Overcast,300,2013-09-11 15:52:00
11:13 AM,66.2,57.2,73,29.94,10.0,WNW,9.2,-,N/A,,Scattered Clouds,300,2013-09-11 16:13:00
11:33 AM,66.2,55.4,68,29.95,10.0,WNW,12.7,18.4,N/A,,Scattered Clouds,290,2013-09-11 16:33:00
11:52 AM,66.2,51.8,60,29.95,10.0,NW,12.7,20.7,N/A,,Scattered Clouds,320,2013-09-11 16:52:00
12:13 PM,66.2,51.8,60,29.95,10.0,WNW,15.0,23.0,N/A,,Scattered Clouds,300,2013-09-11 17:13:00
12:33 PM,68.0,50.0,52,29.96,10.0,NW,12.7,24.2,N/A,,Scattered Clouds,320,2013-09-11 17:33:00
12:53 PM,69.8,51.8,53,29.96,10.0,NW,9.2,20.7,N/A,,Mostly Cloudy,310,2013-09-11 17:53:00
1:13 PM,69.8,48.2,46,29.96,10.0,NW,16.1,24.2,N/A,,Scattered Clouds,310,2013-09-11 18:13:00
1:33 PM,68.0,46.4,46,29.97,10.0,NW,13.8,24.2,N/A,,Clear,320,2013-09-11 18:33:00
1:52 PM,69.8,46.4,43,29.97,10.0,NNW,12.7,19.6,N/A,,Clear,330,2013-09-11 18:52:00
2:13 PM,69.8,46.4,43,29.97,10.0,NW,11.5,19.6,N/A,,Clear,320,2013-09-11 19:13:00
2:33 PM,69.8,46.4,43,29.98,10.0,WNW,15.0,21.9,N/A,,Clear,300,2013-09-11 19:33:00
2:52 PM,69.8,46.4,43,29.98,10.0,NW,9.2,19.6,N/A,,Clear,310,2013-09-11 19:52:00
3:13 PM,69.8,46.4,43,29.98,10.0,NNW,9.2,-,N/A,,Scattered Clouds,330,2013-09-11 20:13:00
3:33 PM,69.8,46.4,43,29.98,10.0,WNW,9.2,17.3,N/A,,Scattered Clouds,300,2013-09-11 20:33:00
3:52 PM,69.8,46.4,43,29.98,10.0,NNW,8.1,18.4,N/A,,Clear,330,2013-09-11 20:52:00
4:13 PM,69.8,46.4,43,29.98,10.0,WNW,10.4,17.3,N/A,,Clear,300,2013-09-11 21:13:00
4:33 PM,69.8,46.4,43,29.99,10.0,WNW,10.4,-,N/A,,Scattered Clouds,300,2013-09-11 21:33:00
4:52 PM,69.8,46.4,43,29.98,10.0,NW,6.9,18.4,N/A,,Clear,320,2013-09-11 21:52:00
5:13 PM,66.2,48.2,52,29.98,10.0,NW,5.8,-,N/A,Thunderstorm,Mostly Cloudy,310,2013-09-11 22:13:00
5:32 PM,69.8,48.2,46,29.98,10.0,Calm,Calm,-,N/A,,Scattered Clouds,0,2013-09-11 22:32:00
5:53 PM,66.2,48.2,52,29.97,10.0,NNW,4.6,-,N/A,,Mostly Cloudy,340,2013-09-11 22:53:00
6:12 PM,66.2,48.2,52,29.98,10.0,Calm,Calm,-,N/A,Thunderstorm,Mostly Cloudy,0,2013-09-11 23:12:00
6:32 PM,60.8,55.4,82,29.99,7.0,NW,6.9,-,N/A,Rain,Light Rain,310,2013-09-11 23:32:00
6:53 PM,57.2,51.8,82,30.00,5.0,West,8.1,17.3,N/A,Rain,Heavy Rain,270,2013-09-11 23:53:00
7:12 PM,55.4,51.8,88,30.04,10.0,West,9.2,-,N/A,Rain,Light Rain,280,2013-09-12 00:12:00
7:32 PM,55.4,53.6,94,30.04,7.0,WNW,10.4,18.4,N/A,Rain-Thunderstorm,Heavy Thunderstorms and Rain,300,2013-09-12 00:32:00
7:53 PM,55.4,53.6,94,30.04,10.0,WNW,5.8,-,0.01,Rain,Rain,300,2013-09-12 00:53:00
8:12 PM,55.4,53.6,94,30.02,10.0,East,4.6,-,0.01,Rain,Light Rain,90,2013-09-12 01:12:00
8:32 PM,55.4,53.6,94,30.02,10.0,Calm,Calm,-,0.02,,Scattered Clouds,0,2013-09-12 01:32:00
8:53 PM,53.6,51.8,94,30.03,10.0,Calm,Calm,-,0.03,,Scattered Clouds,0,2013-09-12 01:53:00
9:12 PM,53.6,51.8,94,30.03,10.0,Calm,Calm,-,0.02,,Clear,0,2013-09-12 02:12:00
9:33 PM,51.8,50.0,94,30.03,0.8,Calm,Calm,-,0.05,,Mist,0,2013-09-12 02:33:00
9:52 PM,51.8,50.0,94,30.03,2.5,Calm,Calm,-,0.08,,Clear,0,2013-09-12 02:52:00
10:13 PM,50.0,50.0,100,30.04,1.0,Calm,Calm,-,0.03,,Mist,0,2013-09-12 03:13:00
10:33 PM,48.2,48.2,100,30.05,1.0,Calm,Calm,-,0.07,,Mist,0,2013-09-12 03:33:00
10:52 PM,50.0,48.2,94,30.06,10.0,WNW,3.5,-,0.09,,Clear,300,2013-09-12 03:52:00
11:13 PM,50.0,50.0,100,30.06,10.0,Calm,Calm,-,0.02,,Clear,0,2013-09-12 04:13:00
11:33 PM,50.0,48.2,94,30.06,10.0,Calm,Calm,-,0.04,,Clear,0,2013-09-12 04:33:00
11:52 PM,50.0,48.2,94,30.06,10.0,Calm,Calm,-,0.06,,Clear,0,2013-09-12 04:52:00